| time (UTC) | temp F | wind direction | speed MPH | gust MPH | rain 1hr in | rain 24hr in | rain mn in | humidity % | barometer mb |
| 20260507191528 | 73 | 287 | 4.0 | 10.0 | 0.00 | 0.00 | 0.00 | 63 | 1019.1 |
| 20260507191014 | 73 | 285 | 3.0 | 10.0 | 0.00 | 0.00 | 0.00 | 64 | 1019.1 |
| 20260507190513 | 73 | 282 | 3.0 | 9.0 | 0.00 | 0.00 | 0.00 | 62 | 1019.1 |
| 20260507190011 | 73 | 283 | 4.0 | 9.0 | 0.00 | 0.00 | 0.00 | 62 | 1019.1 |
| 20260507185509 | 73 | 285 | 2.0 | 7.0 | 0.00 | 0.00 | 0.00 | 62 | 1019.2 |
| 20260507185011 | 73 | 315 | 3.0 | 7.0 | 0.00 | 0.00 | 0.00 | 61 | 1019.2 |
| 20260507184506 | 73 | 246 | 2.0 | 7.0 | 0.00 | 0.00 | 0.00 | 61 | 1019.3 |
| 20260507184006 | 73 | 306 | 2.0 | 7.0 | 0.00 | 0.00 | 0.00 | 63 | 1019.3 |
| 20260507183506 | 73 | 323 | 2.0 | 7.0 | 0.00 | 0.00 | 0.00 | 63 | 1019.3 |
| 20260507183002 | 73 | 282 | 2.0 | 8.0 | 0.00 | 0.00 | 0.00 | 63 | 1019.3 |
| 20260507182502 | 73 | 279 | 2.0 | 8.0 | 0.00 | 0.00 | 0.00 | 61 | 1019.3 |
| 20260507182101 | 73 | 300 | 2.0 | 7.0 | 0.00 | 0.00 | 0.00 | 61 | 1019.3 |
| 20260507181611 | 73 | 270 | 2.0 | 7.0 | 0.00 | 0.00 | 0.00 | 61 | 1019.3 |
| 20260507181058 | 73 | 250 | 1.0 | 5.0 | 0.00 | 0.00 | 0.00 | 59 | 1019.3 |
| 20260507180601 | 73 | 299 | 3.0 | 6.0 | 0.00 | 0.00 | 0.00 | 59 | 1019.3 |
| 20260507180054 | 74 | 290 | 2.0 | 6.0 | 0.00 | 0.00 | 0.00 | 60 | 1019.3 |
| 20260507175553 | 73 | 319 | 2.0 | 6.0 | 0.00 | 0.00 | 0.00 | 60 | 1019.3 |
| 20260507175052 | 73 | 313 | 2.0 | 5.0 | 0.00 | 0.00 | 0.00 | 60 | 1019.5 |
| 20260507174557 | 73 | 281 | 2.0 | 5.0 | 0.00 | 0.00 | 0.00 | 61 | 1019.4 |
| 20260507174048 | 72 | 314 | 3.0 | 5.0 | 0.00 | 0.00 | 0.00 | 61 | 1019.4 |
| 20260507173547 | 72 | 313 | 1.0 | 4.0 | 0.00 | 0.00 | 0.00 | 60 | 1019.4 |
| 20260507173116 | 71 | 315 | 1.0 | 4.0 | 0.00 | 0.00 | 0.00 | 62 | 1019.4 |
| 20260507172547 | 71 | 338 | 0.0 | 2.0 | 0.00 | 0.00 | 0.00 | 63 | 1019.4 |
| 20260507172043 | 71 | 302 | 0.0 | 3.0 | 0.00 | 0.00 | 0.00 | 62 | 1019.4 |
| 20260507171548 | 71 | 302 | 0.0 | 3.0 | 0.00 | 0.00 | 0.00 | 62 | 1019.4 |
| 20260507171042 | 71 | 295 | 1.0 | 3.0 | 0.00 | 0.00 | 0.00 | 63 | 1019.5 |
| 20260507170543 | 71 | 334 | 0.0 | 4.0 | 0.00 | 0.00 | 0.00 | 63 | 1019.6 |
| 20260507170041 | 70 | 336 | 2.0 | 4.0 | 0.00 | 0.00 | 0.00 | 61 | 1019.5 |
| 20260507165539 | 70 | 320 | 1.0 | 4.0 | 0.00 | 0.00 | 0.00 | 62 | 1019.6 |
| 20260507165038 | 70 | 355 | 1.0 | 4.0 | 0.00 | 0.00 | 0.00 | 64 | 1019.5 |
| 20260507164547 | 70 | 337 | 2.0 | 4.0 | 0.00 | 0.00 | 0.00 | 64 | 1019.7 |
| 20260507164034 | 69 | 32 | 1.0 | 3.0 | 0.00 | 0.00 | 0.00 | 64 | 1019.6 |
| 20260507163534 | 69 | 36 | 2.0 | 3.0 | 0.00 | 0.00 | 0.00 | 67 | 1019.7 |
| 20260507163033 | 69 | 44 | 0.0 | 2.0 | 0.00 | 0.00 | 0.00 | 63 | 1019.7 |
| 20260507162531 | 68 | 44 | 0.0 | 3.0 | 0.00 | 0.00 | 0.00 | 67 | 1019.7 |
| 20260507162030 | 68 | 44 | 1.0 | 3.0 | 0.00 | 0.00 | 0.00 | 68 | 1019.7 |
| 20260507161530 | 67 | 44 | 0.0 | 3.0 | 0.00 | 0.00 | 0.00 | 69 | 1019.7 |
| 20260507161028 | 67 | 78 | 0.0 | 2.0 | 0.00 | 0.00 | 0.00 | 70 | 1019.7 |
| 20260507160526 | 66 | 81 | 0.0 | 0.0 | 0.00 | 0.00 | 0.00 | 70 | 1019.8 |
| 20260507160024 | 66 | 82 | 0.0 | 0.0 | 0.00 | 0.00 | 0.00 | 72 | 1019.7 |
| 20260507155523 | 65 | 82 | 0.0 | 0.0 | 0.00 | 0.00 | 0.00 | 72 | 1019.7 |
| 20260507155021 | 64 | 86 | 0.0 | 0.0 | 0.00 | 0.00 | 0.00 | 71 | 1019.8 |
| 20260507154521 | 64 | 86 | 0.0 | 1.0 | 0.00 | 0.00 | 0.00 | 73 | 1019.7 |
| 20260507154017 | 63 | 86 | 0.0 | 2.0 | 0.00 | 0.00 | 0.00 | 70 | 1019.7 |
| 20260507153516 | 63 | 84 | 0.0 | 2.0 | 0.00 | 0.00 | 0.00 | 73 | 1019.8 |
| 20260507153015 | 63 | 75 | 0.0 | 4.0 | 0.00 | 0.00 | 0.00 | 73 | 1019.7 |
| 20260507152518 | 63 | 75 | 1.0 | 4.0 | 0.00 | 0.00 | 0.00 | 74 | 1019.8 |
| 20260507152013 | 62 | 84 | 1.0 | 3.0 | 0.00 | 0.00 | 0.00 | 73 | 1019.7 |
| 20260507151510 | 62 | 94 | 1.0 | 3.0 | 0.00 | 0.00 | 0.00 | 73 | 1019.7 |
| 20260507151009 | 61 | 92 | 1.0 | 3.0 | 0.00 | 0.00 | 0.00 | 75 | 1019.7 |
| 20260507150508 | 61 | 108 | 1.0 | 5.0 | 0.00 | 0.00 | 0.00 | 74 | 1019.8 |
| 20260507150006 | 61 | 77 | 2.0 | 5.0 | 0.00 | 0.00 | 0.00 | 76 | 1019.8 |
| 20260507145507 | 60 | 73 | 0.0 | 4.0 | 0.00 | 0.00 | 0.00 | 76 | 1019.8 |
| 20260507145003 | 60 | 105 | 1.0 | 4.0 | 0.00 | 0.00 | 0.00 | 76 | 1019.8 |
| 20260507144502 | 59 | 111 | 1.0 | 4.0 | 0.00 | 0.00 | 0.00 | 76 | 1019.9 |
| 20260507144101 | 59 | 82 | 2.0 | 5.0 | 0.00 | 0.00 | 0.00 | 77 | 1019.8 |
| 20260507143559 | 59 | 107 | 3.0 | 6.0 | 0.00 | 0.00 | 0.00 | 77 | 1019.8 |
| 20260507143114 | 59 | 84 | 2.0 | 4.0 | 0.00 | 0.00 | 0.00 | 77 | 1019.9 |
| 20260507142556 | 58 | 80 | 2.0 | 3.0 | 0.00 | 0.00 | 0.00 | 78 | 1019.8 |
| 20260507142054 | 58 | 99 | 1.0 | 3.0 | 0.00 | 0.00 | 0.00 | 78 | 1019.8 |
| 20260507141626 | 58 | 98 | 1.0 | 6.0 | 0.00 | 0.00 | 0.00 | 79 | 1019.8 |
| 20260507141056 | 58 | 94 | 3.0 | 6.0 | 0.00 | 0.00 | 0.00 | 78 | 1019.7 |
| 20260507140551 | 57 | 87 | 3.0 | 6.0 | 0.00 | 0.00 | 0.00 | 79 | 1019.7 |
| 20260507140049 | 57 | 53 | 4.0 | 8.0 | 0.00 | 0.00 | 0.00 | 79 | 1019.7 |
| 20260507135547 | 57 | 69 | 4.0 | 9.0 | 0.00 | 0.00 | 0.00 | 79 | 1019.6 |
| 20260507135046 | 56 | 73 | 5.0 | 9.0 | 0.00 | 0.00 | 0.00 | 79 | 1019.6 |
| 20260507134545 | 56 | 98 | 2.0 | 7.0 | 0.00 | 0.00 | 0.00 | 80 | 1019.6 |
| 20260507134043 | 56 | 93 | 2.0 | 8.0 | 0.00 | 0.00 | 0.00 | 80 | 1019.6 |
| 20260507133541 | 55 | 79 | 3.0 | 8.0 | 0.00 | 0.00 | 0.00 | 81 | 1019.5 |
| 20260507133041 | 55 | 109 | 3.0 | 8.0 | 0.00 | 0.00 | 0.00 | 82 | 1019.5 |
| 20260507132539 | 55 | 95 | 2.0 | 5.0 | 0.00 | 0.00 | 0.00 | 82 | 1019.5 |
| 20260507132038 | 55 | 72 | 3.0 | 8.0 | 0.00 | 0.00 | 0.00 | 82 | 1019.4 |
| 20260507131539 | 55 | 80 | 4.0 | 8.0 | 0.00 | 0.00 | 0.00 | 82 | 1019.4 |
| 20260507131036 | 55 | 88 | 3.0 | 6.0 | 0.00 | 0.00 | 0.00 | 83 | 1019.4 |
| 20260507130535 | 55 | 90 | 3.0 | 7.0 | 0.00 | 0.00 | 0.00 | 83 | 1019.4 |
| 20260507130034 | 55 | 110 | 2.0 | 7.0 | 0.00 | 0.00 | 0.00 | 83 | 1019.4 |
| 20260507125535 | 55 | 96 | 2.0 | 7.0 | 0.00 | 0.00 | 0.00 | 83 | 1019.3 |
| 20260507125033 | 55 | 92 | 2.0 | 7.0 | 0.00 | 0.00 | 0.00 | 83 | 1019.3 |
| 20260507124534 | 55 | 103 | 1.0 | 6.0 | 0.00 | 0.00 | 0.00 | 83 | 1019.3 |
| 20260507124034 | 55 | 116 | 0.0 | 6.0 | 0.00 | 0.00 | 0.00 | 84 | 1019.2 |
| 20260507123534 | 55 | 103 | 2.0 | 8.0 | 0.00 | 0.00 | 0.00 | 84 | 1019.3 |
| 20260507123039 | 55 | 86 | 3.0 | 6.0 | 0.00 | 0.00 | 0.00 | 84 | 1019.3 |
| 20260507122534 | 55 | 111 | 2.0 | 6.0 | 0.00 | 0.00 | 0.00 | 84 | 1019.3 |
| 20260507122032 | 55 | 94 | 2.0 | 6.0 | 0.00 | 0.00 | 0.00 | 83 | 1019.3 |
| 20260507121531 | 55 | 90 | 2.0 | 5.0 | 0.00 | 0.00 | 0.00 | 83 | 1019.4 |
| 20260507121032 | 55 | 74 | 2.0 | 5.0 | 0.00 | 0.00 | 0.00 | 83 | 1019.4 |
| 20260507120531 | 55 | 94 | 2.0 | 5.0 | 0.00 | 0.00 | 0.00 | 84 | 1019.4 |
| 20260507120041 | 55 | 90 | 1.0 | 6.0 | 0.00 | 0.00 | 0.00 | 84 | 1019.4 |
| 20260507115530 | 55 | 108 | 1.0 | 4.0 | 0.00 | 0.00 | 0.00 | 84 | 1019.4 |
| 20260507115030 | 55 | 98 | 0.0 | 3.0 | 0.00 | 0.00 | 0.00 | 84 | 1019.4 |
| 20260507114529 | 56 | 97 | 1.0 | 3.0 | 0.00 | 0.00 | 0.00 | 84 | 1019.5 |
| 20260507114029 | 56 | 111 | 1.0 | 3.0 | 0.00 | 0.00 | 0.00 | 84 | 1019.5 |
| 20260507113528 | 56 | 103 | 0.0 | 6.0 | 0.00 | 0.00 | 0.00 | 84 | 1019.5 |
| 20260507113039 | 55 | 86 | 2.0 | 6.0 | 0.00 | 0.00 | 0.00 | 84 | 1019.5 |
| 20260507112528 | 55 | 74 | 2.0 | 8.0 | 0.00 | 0.00 | 0.00 | 85 | 1019.5 |
| 20260507112028 | 55 | 91 | 4.0 | 8.0 | 0.00 | 0.00 | 0.00 | 85 | 1019.5 |
| 20260507111528 | 55 | 79 | 3.0 | 6.0 | 0.00 | 0.00 | 0.00 | 85 | 1019.6 |
| 20260507111026 | 55 | 74 | 2.0 | 4.0 | 0.00 | 0.00 | 0.00 | 85 | 1019.5 |
| 20260507110528 | 55 | 94 | 0.0 | 4.0 | 0.00 | 0.00 | 0.00 | 85 | 1019.6 |
| 20260507110030 | 55 | 87 | 1.0 | 4.0 | 0.00 | 0.00 | 0.00 | 85 | 1019.7 |
| 20260507105525 | 55 | 83 | 2.0 | 4.0 | 0.00 | 0.00 | 0.00 | 85 | 1019.7 |
| 20260507105025 | 55 | 93 | 2.0 | 4.0 | 0.00 | 0.00 | 0.00 | 86 | 1019.7 |
| 20260507104525 | 55 | 95 | 2.0 | 6.0 | 0.00 | 0.00 | 0.00 | 86 | 1019.7 |
| 20260507104025 | 55 | 78 | 2.0 | 6.0 | 0.00 | 0.00 | 0.00 | 85 | 1019.7 |
| 20260507103524 | 55 | 79 | 3.0 | 5.0 | 0.00 | 0.00 | 0.00 | 85 | 1019.6 |
| 20260507103023 | 55 | 72 | 2.0 | 4.0 | 0.00 | 0.00 | 0.00 | 85 | 1019.7 |
| 20260507102523 | 56 | 78 | 2.0 | 4.0 | 0.00 | 0.00 | 0.00 | 85 | 1019.7 |
| 20260507102023 | 56 | 86 | 1.0 | 3.0 | 0.00 | 0.00 | 0.00 | 85 | 1019.7 |
| 20260507101523 | 56 | 88 | 1.0 | 4.0 | 0.00 | 0.00 | 0.00 | 85 | 1019.7 |
| 20260507101022 | 56 | 82 | 2.0 | 4.0 | 0.00 | 0.00 | 0.00 | 85 | 1019.8 |
| 20260507100522 | 56 | 94 | 2.0 | 6.0 | 0.00 | 0.00 | 0.00 | 85 | 1019.8 |
| 20260507100032 | 56 | 83 | 2.0 | 6.0 | 0.00 | 0.00 | 0.00 | 85 | 1019.7 |
| 20260507095521 | 56 | 84 | 2.0 | 4.0 | 0.00 | 0.00 | 0.00 | 85 | 1019.8 |
| 20260507095021 | 56 | 82 | 2.0 | 4.0 | 0.00 | 0.00 | 0.00 | 85 | 1019.8 |
| 20260507094520 | 56 | 82 | 0.0 | 2.0 | 0.00 | 0.00 | 0.00 | 85 | 1019.8 |
| 20260507094019 | 56 | 82 | 0.0 | 3.0 | 0.00 | 0.00 | 0.00 | 85 | 1019.8 |
| 20260507093522 | 56 | 81 | 1.0 | 4.0 | 0.00 | 0.00 | 0.00 | 85 | 1019.8 |
| 20260507093019 | 56 | 80 | 2.0 | 4.0 | 0.00 | 0.00 | 0.00 | 86 | 1019.9 |
| 20260507092518 | 56 | 80 | 2.0 | 5.0 | 0.00 | 0.00 | 0.00 | 86 | 1020.0 |
| 20260507092021 | 56 | 46 | 2.0 | 5.0 | 0.00 | 0.00 | 0.00 | 86 | 1019.9 |
| 20260507091521 | 56 | 84 | 3.0 | 5.0 | 0.00 | 0.00 | 0.00 | 86 | 1020.0 |
| 20260507091017 | 56 | 74 | 3.0 | 7.0 | 0.00 | 0.00 | 0.00 | 86 | 1020.0 |
| 20260507090516 | 56 | 84 | 3.0 | 7.0 | 0.00 | 0.00 | 0.00 | 86 | 1020.0 |
| 20260507090015 | 56 | 73 | 4.0 | 6.0 | 0.00 | 0.00 | 0.00 | 86 | 1020.1 |
| 20260507085514 | 56 | 81 | 2.0 | 8.0 | 0.00 | 0.00 | 0.00 | 86 | 1020.1 |
| 20260507085014 | 56 | 76 | 3.0 | 8.0 | 0.00 | 0.00 | 0.00 | 86 | 1020.1 |
| 20260507084513 | 56 | 90 | 3.0 | 7.0 | 0.00 | 0.00 | 0.00 | 86 | 1020.3 |
| 20260507084012 | 56 | 79 | 2.0 | 6.0 | 0.00 | 0.00 | 0.00 | 87 | 1020.3 |
| 20260507083512 | 56 | 88 | 3.0 | 6.0 | 0.00 | 0.00 | 0.00 | 87 | 1020.3 |
| 20260507083012 | 55 | 96 | 2.0 | 6.0 | 0.00 | 0.00 | 0.00 | 87 | 1020.2 |
| 20260507082517 | 55 | 92 | 2.0 | 5.0 | 0.00 | 0.00 | 0.00 | 87 | 1020.3 |
| 20260507082011 | 55 | 98 | 3.0 | 6.0 | 0.00 | 0.00 | 0.00 | 87 | 1020.3 |
| 20260507081511 | 55 | 107 | 2.0 | 6.0 | 0.00 | 0.00 | 0.00 | 87 | 1020.3 |
| 20260507081011 | 55 | 79 | 2.0 | 6.0 | 0.00 | 0.00 | 0.00 | 87 | 1020.3 |
| 20260507080511 | 55 | 97 | 2.0 | 6.0 | 0.00 | 0.00 | 0.00 | 87 | 1020.3 |
| 20260507080010 | 55 | 92 | 2.0 | 4.0 | 0.00 | 0.00 | 0.00 | 87 | 1020.4 |
| 20260507075509 | 55 | 86 | 2.0 | 6.0 | 0.00 | 0.00 | 0.00 | 86 | 1020.4 |
| 20260507075009 | 55 | 89 | 2.0 | 4.0 | 0.00 | 0.00 | 0.00 | 86 | 1020.4 |
| 20260507074511 | 55 | 94 | 1.0 | 4.0 | 0.00 | 0.00 | 0.00 | 86 | 1020.4 |
| 20260507074008 | 55 | 105 | 0.0 | 3.0 | 0.00 | 0.00 | 0.00 | 86 | 1020.5 |
| 20260507073508 | 56 | 105 | 0.0 | 4.0 | 0.00 | 0.00 | 0.00 | 86 | 1020.4 |
| 20260507073007 | 56 | 109 | 1.0 | 4.0 | 0.00 | 0.00 | 0.00 | 86 | 1020.5 |
| 20260507072507 | 56 | 93 | 1.0 | 4.0 | 0.00 | 0.00 | 0.00 | 86 | 1020.5 |
| 20260507072006 | 56 | 94 | 1.0 | 4.0 | 0.00 | 0.00 | 0.00 | 85 | 1020.5 |
| 20260507071506 | 56 | 92 | 1.0 | 3.0 | 0.00 | 0.00 | 0.00 | 85 | 1020.5 |
| 20260507071005 | 56 | 94 | 1.0 | 3.0 | 0.00 | 0.00 | 0.00 | 85 | 1020.5 |
| 20260507070506 | 56 | 94 | 0.0 | 3.0 | 0.00 | 0.00 | 0.00 | 85 | 1020.6 |
| 20260507070003 | 56 | 113 | 0.0 | 3.0 | 0.00 | 0.00 | 0.00 | 84 | 1020.5 |
| 20260507065505 | 56 | 113 | 1.0 | 3.0 | 0.00 | 0.00 | 0.00 | 84 | 1020.4 |
| 20260507065003 | 56 | 122 | 1.0 | 3.0 | 0.00 | 0.00 | 0.00 | 84 | 1020.5 |
| 20260507064503 | 56 | 123 | 0.0 | 2.0 | 0.00 | 0.00 | 0.00 | 84 | 1020.6 |
| 20260507064006 | 56 | 122 | 0.0 | 3.0 | 0.00 | 0.00 | 0.00 | 84 | 1020.6 |
| 20260507063502 | 56 | 123 | 0.0 | 4.0 | 0.00 | 0.00 | 0.00 | 84 | 1020.5 |
| 20260507063002 | 56 | 118 | 1.0 | 4.0 | 0.00 | 0.00 | 0.00 | 84 | 1020.5 |
| 20260507062501 | 56 | 107 | 0.0 | 2.0 | 0.00 | 0.00 | 0.00 | 84 | 1020.5 |
| 20260507062002 | 56 | 107 | 0.0 | 3.0 | 0.00 | 0.00 | 0.00 | 83 | 1020.6 |
| 20260507061502 | 56 | 107 | 0.0 | 3.0 | 0.00 | 0.00 | 0.00 | 83 | 1020.5 |
| 20260507061004 | 56 | 46 | 0.0 | 2.0 | 0.00 | 0.00 | 0.00 | 83 | 1020.6 |
| 20260507060503 | 57 | 275 | 0.0 | 2.0 | 0.00 | 0.00 | 0.00 | 83 | 1020.6 |
| 20260507060100 | 57 | 277 | 0.0 | 0.0 | 0.00 | 0.00 | 0.00 | 83 | 1020.6 |
| 20260507060002 | 57 | 277 | 0.0 | 0.0 | 0.00 | 0.00 | 0.00 | 83 | 1020.5 |
| 20260507055600 | 57 | 280 | 0.0 | 1.0 | 0.00 | 0.00 | 0.00 | 83 | 1020.5 |
| 20260507055100 | 57 | 282 | 0.0 | 1.0 | 0.00 | 0.00 | 0.00 | 83 | 1020.5 |
| 20260507054600 | 57 | 282 | 0.0 | 0.0 | 0.00 | 0.00 | 0.00 | 82 | 1020.5 |
| 20260507054105 | 57 | 282 | 0.0 | 0.0 | 0.00 | 0.00 | 0.00 | 82 | 1020.5 |
| 20260507053600 | 57 | 282 | 0.0 | 0.0 | 0.00 | 0.00 | 0.00 | 82 | 1020.6 |
| 20260507053101 | 57 | 282 | 0.0 | 0.0 | 0.00 | 0.00 | 0.00 | 82 | 1020.6 |
| 20260507052601 | 57 | 282 | 0.0 | 0.0 | 0.00 | 0.00 | 0.00 | 82 | 1020.5 |
| 20260507052100 | 57 | 282 | 0.0 | 0.0 | 0.00 | 0.00 | 0.00 | 82 | 1020.6 |
| 20260507051600 | 57 | 282 | 0.0 | 0.0 | 0.00 | 0.00 | 0.00 | 82 | 1020.6 |
| 20260507051102 | 57 | 282 | 0.0 | 0.0 | 0.00 | 0.00 | 0.00 | 81 | 1020.6 |
| 20260507050559 | 57 | 282 | 0.0 | 0.0 | 0.00 | 0.00 | 0.00 | 81 | 1020.7 |
| 20260507050100 | 57 | 282 | 0.0 | 0.0 | 0.00 | 0.00 | 0.00 | 81 | 1020.6 |
| 20260507045559 | 57 | 282 | 0.0 | 0.0 | 0.00 | 0.00 | 0.00 | 81 | 1020.7 |
| 20260507045059 | 57 | 282 | 0.0 | 0.0 | 0.00 | 0.00 | 0.00 | 81 | 1020.7 |
| 20260507044601 | 57 | 282 | 0.0 | 1.0 | 0.00 | 0.00 | 0.00 | 81 | 1020.7 |
| 20260507044058 | 57 | 282 | 0.0 | 4.0 | 0.00 | 0.00 | 0.00 | 81 | 1020.7 |
| 20260507043558 | 57 | 282 | 1.0 | 4.0 | 0.00 | 0.00 | 0.00 | 81 | 1020.7 |
| 20260507043058 | 57 | 249 | 0.0 | 0.0 | 0.00 | 0.00 | 0.00 | 81 | 1020.7 |
| 20260507042559 | 57 | 249 | 0.0 | 2.0 | 0.00 | 0.00 | 0.00 | 80 | 1020.7 |
| 20260507042101 | 58 | 249 | 0.0 | 2.0 | 0.00 | 0.00 | 0.00 | 80 | 1020.7 |
| 20260507041606 | 58 | 249 | 0.0 | 2.0 | 0.00 | 0.00 | 0.00 | 80 | 1020.7 |
| 20260507041058 | 58 | 249 | 0.0 | 2.0 | 0.00 | 0.00 | 0.00 | 80 | 1020.5 |
| 20260507040558 | 58 | 244 | 0.0 | 1.0 | 0.00 | 0.00 | 0.00 | 80 | 1020.5 |
| 20260507040106 | 58 | 244 | 0.0 | 2.0 | 0.00 | 0.00 | 0.00 | 79 | 1020.5 |
| 20260507035557 | 58 | 244 | 0.0 | 2.0 | 0.00 | 0.00 | 0.00 | 79 | 1020.4 |
| 20260507035058 | 58 | 242 | 0.0 | 3.0 | 0.00 | 0.00 | 0.00 | 79 | 1020.4 |
| 20260507034619 | 58 | 243 | 1.0 | 3.0 | 0.00 | 0.00 | 0.00 | 79 | 1020.2 |
| 20260507034057 | 59 | 240 | 1.0 | 4.0 | 0.00 | 0.00 | 0.00 | 79 | 1020.2 |
| 20260507033557 | 59 | 238 | 1.0 | 4.0 | 0.00 | 0.00 | 0.00 | 78 | 1020.2 |
| 20260507033106 | 59 | 261 | 2.0 | 3.0 | 0.00 | 0.00 | 0.00 | 78 | 1020.1 |
| 20260507032557 | 59 | 247 | 1.0 | 4.0 | 0.00 | 0.00 | 0.00 | 78 | 1020.1 |
| 20260507032056 | 59 | 243 | 2.0 | 4.0 | 0.00 | 0.00 | 0.00 | 78 | 1020.1 |
| 20260507031556 | 60 | 246 | 1.0 | 4.0 | 0.00 | 0.00 | 0.00 | 78 | 1020.0 |
| 20260507031057 | 60 | 246 | 2.0 | 4.0 | 0.00 | 0.00 | 0.00 | 77 | 1020.0 |
| 20260507030556 | 60 | 251 | 2.0 | 5.0 | 0.00 | 0.00 | 0.00 | 76 | 1019.9 |
| 20260507025555 | 61 | 242 | 2.0 | 4.0 | 0.00 | 0.00 | 0.00 | 75 | 1019.8 |
| 20260507025055 | 61 | 254 | 2.0 | 8.0 | 0.00 | 0.00 | 0.00 | 74 | 1019.9 |
| 20260507024603 | 62 | 236 | 3.0 | 8.0 | 0.00 | 0.00 | 0.00 | 74 | 1019.7 |
| 20260507024055 | 62 | 267 | 2.0 | 4.0 | 0.00 | 0.00 | 0.00 | 73 | 1019.7 |
| 20260507023554 | 63 | 267 | 1.0 | 4.0 | 0.00 | 0.00 | 0.00 | 73 | 1019.6 |
| 20260507023053 | 63 | 256 | 1.0 | 4.0 | 0.00 | 0.00 | 0.00 | 72 | 1019.6 |
| 20260507022553 | 63 | 239 | 1.0 | 4.0 | 0.00 | 0.00 | 0.00 | 72 | 1019.6 |
| 20260507022054 | 63 | 286 | 2.0 | 5.0 | 0.00 | 0.00 | 0.00 | 71 | 1019.5 |
| 20260507021601 | 64 | 286 | 2.0 | 5.0 | 0.00 | 0.00 | 0.00 | 71 | 1019.5 |
| 20260507021053 | 64 | 277 | 1.0 | 7.0 | 0.00 | 0.00 | 0.00 | 70 | 1019.5 |
| 20260507020553 | 64 | 236 | 2.0 | 7.0 | 0.00 | 0.00 | 0.00 | 68 | 1019.6 |
| 20260507020052 | 65 | 270 | 1.0 | 5.0 | 0.00 | 0.00 | 0.00 | 68 | 1019.4 |
| 20260507015551 | 65 | 244 | 2.0 | 5.0 | 0.00 | 0.00 | 0.00 | 68 | 1019.5 |
| 20260507015050 | 65 | 245 | 1.0 | 9.0 | 0.00 | 0.00 | 0.00 | 68 | 1019.6 |
| 20260507014552 | 65 | 279 | 2.0 | 9.0 | 0.00 | 0.00 | 0.00 | 68 | 1019.5 |
| 20260507014051 | 65 | 290 | 2.0 | 7.0 | 0.00 | 0.00 | 0.00 | 67 | 1019.5 |
| 20260507013549 | 65 | 271 | 2.0 | 9.0 | 0.00 | 0.00 | 0.00 | 67 | 1019.5 |
| 20260507013103 | 65 | 296 | 3.0 | 9.0 | 0.00 | 0.00 | 0.00 | 68 | 1019.5 |
| 20260507012550 | 66 | 233 | 3.0 | 7.0 | 0.00 | 0.00 | 0.00 | 67 | 1019.5 |
| 20260507012050 | 66 | 233 | 2.0 | 7.0 | 0.00 | 0.00 | 0.00 | 67 | 1019.5 |
| 20260507011550 | 66 | 205 | 2.0 | 4.0 | 0.00 | 0.00 | 0.00 | 65 | 1019.5 |
| 20260507011050 | 67 | 246 | 2.0 | 11.0 | 0.00 | 0.00 | 0.00 | 65 | 1019.5 |
| 20260507010549 | 67 | 277 | 3.0 | 11.0 | 0.00 | 0.00 | 0.00 | 65 | 1019.7 |
| 20260507010052 | 67 | 287 | 1.0 | 7.0 | 0.00 | 0.00 | 0.00 | 65 | 1019.6 |
| 20260507005551 | 67 | 234 | 3.0 | 7.0 | 0.00 | 0.00 | 0.00 | 65 | 1019.6 |
| 20260507005049 | 68 | 248 | 2.0 | 9.0 | 0.00 | 0.00 | 0.00 | 65 | 1019.6 |
| 20260507004548 | 68 | 286 | 3.0 | 9.0 | 0.00 | 0.00 | 0.00 | 63 | 1019.6 |
| 20260507004048 | 68 | 248 | 2.0 | 7.0 | 0.00 | 0.00 | 0.00 | 63 | 1019.6 |
| 20260507003548 | 68 | 271 | 2.0 | 8.0 | 0.00 | 0.00 | 0.00 | 63 | 1019.5 |
| 20260507003046 | 68 | 288 | 1.0 | 8.0 | 0.00 | 0.00 | 0.00 | 64 | 1019.5 |
| 20260507002546 | 68 | 278 | 3.0 | 9.0 | 0.00 | 0.00 | 0.00 | 63 | 1019.5 |
| 20260507002047 | 68 | 299 | 3.0 | 9.0 | 0.00 | 0.00 | 0.00 | 63 | 1019.6 |
| 20260507001606 | 68 | 289 | 3.0 | 8.0 | 0.00 | 0.00 | 0.00 | 64 | 1019.7 |
| 20260507001045 | 68 | 271 | 2.0 | 8.0 | 0.00 | 0.00 | 0.00 | 63 | 1019.5 |
| 20260507000545 | 67 | 271 | 3.0 | 7.0 | 0.00 | 0.00 | 0.00 | 65 | 1019.6 |
| 20260507000044 | 67 | 244 | 2.0 | 9.0 | 0.00 | 0.00 | 0.00 | 64 | 1019.6 |
| 20260506235543 | 68 | 233 | 3.0 | 9.0 | 0.00 | 0.00 | 0.00 | 62 | 1019.6 |
| 20260506235043 | 68 | 278 | 4.0 | 10.0 | 0.00 | 0.00 | 0.00 | 62 | 1019.7 |
| 20260506234552 | 68 | 292 | 3.0 | 10.0 | 0.00 | 0.00 | 0.00 | 63 | 1019.7 |
| 20260506234042 | 68 | 281 | 4.0 | 9.0 | 0.00 | 0.00 | 0.00 | 62 | 1019.8 |
| 20260506233542 | 69 | 293 | 4.0 | 9.0 | 0.00 | 0.00 | 0.00 | 61 | 1019.8 |
| 20260506233041 | 68 | 283 | 4.0 | 9.0 | 0.00 | 0.00 | 0.00 | 62 | 1019.8 |
| 20260506232540 | 68 | 246 | 2.0 | 9.0 | 0.00 | 0.00 | 0.00 | 63 | 1019.7 |
| 20260506232040 | 68 | 262 | 2.0 | 9.0 | 0.00 | 0.00 | 0.00 | 63 | 1019.7 |
| 20260506231539 | 68 | 286 | 5.0 | 9.0 | 0.00 | 0.00 | 0.00 | 62 | 1019.9 |
| 20260506231039 | 68 | 269 | 2.0 | 8.0 | 0.00 | 0.00 | 0.00 | 65 | 1019.8 |
| 20260506230538 | 68 | 263 | 3.0 | 10.0 | 0.00 | 0.00 | 0.00 | 63 | 1020.0 |
| 20260506230036 | 68 | 294 | 4.0 | 10.0 | 0.00 | 0.00 | 0.00 | 63 | 1020.0 |
| 20260506225536 | 68 | 240 | 4.0 | 8.0 | 0.00 | 0.00 | 0.00 | 64 | 1020.1 |
| 20260506225038 | 68 | 240 | 3.0 | 9.0 | 0.00 | 0.00 | 0.00 | 63 | 1020.1 |
| 20260506224542 | 68 | 296 | 3.0 | 9.0 | 0.00 | 0.00 | 0.00 | 63 | 1020.2 |
| 20260506224034 | 68 | 292 | 4.0 | 10.0 | 0.00 | 0.00 | 0.00 | 63 | 1020.2 |
| 20260506223534 | 67 | 243 | 3.0 | 11.0 | 0.00 | 0.00 | 0.00 | 64 | 1020.3 |
| 20260506223034 | 67 | 248 | 3.0 | 11.0 | 0.00 | 0.00 | 0.00 | 62 | 1020.4 |
| 20260506222536 | 68 | 298 | 3.0 | 8.0 | 0.00 | 0.00 | 0.00 | 63 | 1020.4 |
| 20260506222034 | 68 | 282 | 2.0 | 9.0 | 0.00 | 0.00 | 0.00 | 64 | 1020.4 |
| 20260506221532 | 68 | 288 | 5.0 | 9.0 | 0.00 | 0.00 | 0.00 | 64 | 1020.5 |
| 20260506221032 | 67 | 278 | 2.0 | 8.0 | 0.00 | 0.00 | 0.00 | 66 | 1020.5 |
| 20260506220530 | 67 | 236 | 2.0 | 8.0 | 0.00 | 0.00 | 0.00 | 69 | 1020.5 |
| 20260506220035 | 67 | 280 | 3.0 | 9.0 | 0.00 | 0.00 | 0.00 | 65 | 1020.6 |
| 20260506215529 | 67 | 271 | 3.0 | 8.0 | 0.00 | 0.00 | 0.00 | 64 | 1020.6 |
| 20260506215029 | 67 | 281 | 3.0 | 9.0 | 0.00 | 0.00 | 0.00 | 64 | 1020.8 |
| 20260506214528 | 67 | 300 | 3.0 | 9.0 | 0.00 | 0.00 | 0.00 | 64 | 1020.8 |
| 20260506214030 | 67 | 229 | 3.0 | 10.0 | 0.00 | 0.00 | 0.00 | 64 | 1020.9 |
| 20260506213527 | 66 | 280 | 4.0 | 11.0 | 0.00 | 0.00 | 0.00 | 65 | 1021.0 |
| 20260506213027 | 67 | 271 | 4.0 | 11.0 | 0.00 | 0.00 | 0.00 | 65 | 1021.0 |
| 20260506212527 | 66 | 319 | 3.0 | 8.0 | 0.00 | 0.00 | 0.00 | 65 | 1021.1 |
| 20260506212027 | 66 | 279 | 3.0 | 12.0 | 0.00 | 0.00 | 0.00 | 66 | 1021.0 |
| 20260506211526 | 66 | 271 | 3.0 | 9.0 | 0.00 | 0.00 | 0.00 | 64 | 1021.1 |
| 20260506211026 | 67 | 240 | 4.0 | 7.0 | 0.00 | 0.00 | 0.00 | 63 | 1021.1 |
| 20260506210525 | 66 | 236 | 2.0 | 7.0 | 0.00 | 0.00 | 0.00 | 68 | 1021.2 |
| 20260506210025 | 66 | 244 | 3.0 | 7.0 | 0.00 | 0.00 | 0.00 | 62 | 1021.2 |
| 20260506205523 | 67 | 257 | 3.0 | 8.0 | 0.00 | 0.00 | 0.00 | 65 | 1021.3 |
| 20260506205022 | 67 | 246 | 1.0 | 6.0 | 0.00 | 0.00 | 0.00 | 68 | 1021.3 |
| 20260506204523 | 66 | 211 | 2.0 | 8.0 | 0.00 | 0.00 | 0.00 | 65 | 1021.3 |
| 20260506204020 | 66 | 275 | 3.0 | 8.0 | 0.00 | 0.00 | 0.00 | 65 | 1021.3 |
| 20260506203520 | 65 | 248 | 2.0 | 8.0 | 0.00 | 0.00 | 0.00 | 67 | 1021.4 |
| 20260506203020 | 65 | 240 | 3.0 | 8.0 | 0.00 | 0.00 | 0.00 | 66 | 1021.4 |
| 20260506202523 | 66 | 231 | 2.0 | 5.0 | 0.00 | 0.00 | 0.00 | 69 | 1021.4 |
| 20260506202020 | 65 | 260 | 1.0 | 6.0 | 0.00 | 0.00 | 0.00 | 69 | 1021.5 |
| 20260506201520 | 65 | 290 | 3.0 | 7.0 | 0.00 | 0.00 | 0.00 | 65 | 1021.5 |
| 20260506201021 | 65 | 234 | 3.0 | 7.0 | 0.00 | 0.00 | 0.00 | 70 | 1021.6 |
| 20260506200519 | 65 | 303 | 3.0 | 9.0 | 0.00 | 0.00 | 0.00 | 65 | 1021.7 |
| 20260506200019 | 65 | 271 | 4.0 | 9.0 | 0.00 | 0.00 | 0.00 | 66 | 1021.6 |
| 20260506195518 | 66 | 288 | 2.0 | 9.0 | 0.00 | 0.00 | 0.00 | 70 | 1021.7 |
| 20260506195017 | 65 | 259 | 3.0 | 8.0 | 0.00 | 0.00 | 0.00 | 69 | 1021.8 |
| 20260506194526 | 65 | 259 | 1.0 | 7.0 | 0.00 | 0.00 | 0.00 | 68 | 1021.7 |
| 20260506194018 | 65 | 291 | 1.0 | 7.0 | 0.00 | 0.00 | 0.00 | 67 | 1021.8 |
| 20260506193516 | 65 | 208 | 3.0 | 7.0 | 0.00 | 0.00 | 0.00 | 68 | 1021.8 |
| 20260506193014 | 64 | 290 | 2.0 | 8.0 | 0.00 | 0.00 | 0.00 | 69 | 1022.0 |
| 20260506192514 | 64 | 216 | 3.0 | 8.0 | 0.00 | 0.00 | 0.00 | 66 | 1022.0 |
| 20260506192013 | 64 | 290 | 1.0 | 8.0 | 0.00 | 0.00 | 0.00 | 68 | 1022.1 |